FW3819 Weather Reports


Display with metric or nautical units.
time (UTC)temp
F
wind
direction
speed
MPH
gust
MPH
rain 1hr
in
rain 24hr
in
rain mn
in
humidity
%
barometer
mb
20260509220601 74 188 1.0 3.0 0.00 0.00 0.00 53 1009.3
20260509215603 74 11 1.0 5.0 0.00 0.00 0.00 51 1009.3
20260509215400 75 296 1.0 5.0 0.00 0.00 0.00 49 1009.3
20260509214602 75 166 2.0 5.0 0.00 0.00 0.00 48 1009.4
20260509214103 76 203 2.0 7.0 0.00 0.00 0.00 47 1009.3
20260509213603 76 158 2.0 7.0 0.00 0.00 0.00 45 1009.3
20260509213101 78 222 2.0 5.0 0.00 0.00 0.00 46 1009.3
20260509212600 77 143 1.0 5.0 0.00 0.00 0.00 46 1009.3
20260509212102 76 54 1.0 4.0 0.00 0.00 0.00 48 1009.3
20260509211601 75 82 1.0 4.0 0.00 0.00 0.00 49 1009.2
20260509211100 74 41 1.0 3.0 0.00 0.00 0.00 49 1009.3
20260509210601 74 11 1.0 3.0 0.00 0.00 0.00 51 1009.4
20260509205602 74 143 1.0 4.0 0.00 0.00 0.00 50 1009.4
20260509205102 74 143 2.0 8.0 0.00 0.00 0.00 48 1009.4
20260509204603 74 152 3.0 8.0 0.00 0.00 0.00 48 1009.4
20260509204359 76 188 3.0 9.0 0.00 0.00 0.00 48 1009.3
20260509203604 76 143 3.0 9.0 0.00 0.00 0.00 48 1009.3
20260509203058 75 166 3.0 11.0 0.00 0.00 0.00 46 1009.2
20260509202554 76 167 3.0 11.0 0.00 0.00 0.00 46 1009.2
20260509202054 76 150 2.0 9.0 0.00 0.00 0.00 45 1009.2
20260509201552 75 127 1.0 7.0 0.00 0.00 0.00 50 1009.2
20260509201052 75 37 2.0 8.0 0.00 0.00 0.00 50 1009.4
20260509200553 75 100 3.0 12.0 0.00 0.00 0.00 48 1009.5
20260509200054 75 192 2.0 12.0 0.00 0.00 0.00 46 1009.7
20260509195554 76 11 2.0 8.0 0.00 0.00 0.00 49 1009.7
20260509195052 76 222 2.0 8.0 0.00 0.00 0.00 51 1009.8
20260509194555 75 166 2.0 8.0 0.00 0.00 0.00 52 1009.9
20260509194054 74 11 2.0 9.0 0.00 0.00 0.00 53 1009.9
20260509193555 73 215 2.0 9.0 0.00 0.00 0.00 53 1009.9
20260509193051 72 100 1.0 9.0 0.00 0.00 0.00 54 1010.2
20260509192552 72 54 1.0 7.0 0.00 0.00 0.00 56 1010.2
20260509192049 73 82 2.0 11.0 0.00 0.00 0.00 53 1010.4
20260509191549 73 158 3.0 11.0 0.00 0.00 0.00 52 1010.4
20260509191050 72 152 2.0 8.0 0.00 0.00 0.00 54 1010.5
20260509190550 71 162 1.0 7.0 0.00 0.00 0.00 55 1010.5
20260509190050 72 178 1.0 4.0 0.00 0.00 0.00 53 1010.4
20260509185551 72 260 1.0 4.0 0.00 0.00 0.00 54 1010.4
20260509185048 72 132 1.0 4.0 0.00 0.00 0.00 56 1010.3
20260509184548 70 171 1.0 4.0 0.00 0.00 0.00 55 1010.3
20260509184050 71 271 1.0 4.0 0.00 0.00 0.00 57 1010.8
20260509183547 71 215 1.0 4.0 0.00 0.00 0.00 56 1010.7
20260509183047 70 82 1.0 4.0 0.00 0.00 0.00 56 1010.7
20260509182545 70 258 1.0 4.0 0.00 0.00 0.00 57 1010.8
20260509182046 70 279 1.0 3.0 0.00 0.00 0.00 57 1010.7
20260509181849 69 28 1.0 4.0 0.00 0.00 0.00 58 1010.9
20260509181046 68 234 2.0 7.0 0.00 0.00 0.00 59 1011.0
20260509180546 68 269 2.0 7.0 0.00 0.00 0.00 59 1011.2
20260509180047 68 150 2.0 7.0 0.00 0.00 0.00 57 1011.3
20260509175548 69 234 2.0 8.0 0.00 0.00 0.00 57 1011.4
20260509175041 69 205 3.0 8.0 0.00 0.00 0.00 56 1011.3
20260509174541 69 213 3.0 8.0 0.00 0.00 0.00 55 1011.3
20260509174336 69 171 3.0 11.0 0.00 0.00 0.00 55 1011.5
20260509173540 69 177 3.0 12.0 0.00 0.00 0.00 55 1011.5
20260509173338 69 162 3.0 12.0 0.00 0.00 0.00 56 1011.3
20260509172540 70 132 3.0 11.0 0.00 0.00 0.00 54 1011.4
20260509172343 71 155 3.0 9.0 0.00 0.00 0.00 53 1011.4
20260509171541 71 280 2.0 9.0 0.00 0.00 0.00 53 1011.4
20260509171041 69 137 3.0 12.0 0.00 0.00 0.00 54 1011.5
20260509170840 69 132 4.0 14.0 0.00 0.00 0.00 55 1011.6
20260509170041 69 177 4.0 14.0 0.00 0.00 0.00 54 1011.6
20260509165541 69 150 3.0 12.0 0.00 0.00 0.00 55 1011.5
20260509165038 69 187 2.0 8.0 0.00 0.00 0.00 56 1011.6
20260509164538 68 171 3.0 18.0 0.00 0.00 0.00 56 1011.7
20260509164040 68 135 3.0 18.0 0.00 0.00 0.00 57 1011.7
20260509163536 68 160 2.0 11.0 0.00 0.00 0.00 56 1011.6
20260509163038 68 171 1.0 5.0 0.00 0.00 0.00 59 1011.7
20260509162538 68 143 1.0 5.0 0.00 0.00 0.00 56 1011.6
20260509162035 69 54 1.0 4.0 0.00 0.00 0.00 57 1011.6
20260509161535 69 171 2.0 7.0 0.00 0.00 0.00 56 1011.6
20260509161034 69 153 2.0 7.0 0.00 0.00 0.00 55 1011.6
20260509160535 69 191 2.0 5.0 0.00 0.00 0.00 55 1011.7
20260509160034 70 172 2.0 8.0 0.00 0.00 0.00 53 1011.6
20260509155533 71 117 2.0 8.0 0.00 0.00 0.00 53 1011.7
20260509155334 70 162 2.0 7.0 0.00 0.00 0.00 55 1011.7
20260509154532 68 191 2.0 7.0 0.00 0.00 0.00 56 1011.8
20260509154032 69 279 1.0 7.0 0.00 0.00 0.00 55 1011.8
20260509153532 69 143 1.0 7.0 0.00 0.00 0.00 56 1012.0
20260509153033 67 41 1.0 5.0 0.00 0.00 0.00 57 1012.0
20260509152535 67 162 2.0 5.0 0.00 0.00 0.00 58 1012.0
20260509152033 67 41 1.0 5.0 0.00 0.00 0.00 59 1012.1
20260509151532 67 41 2.0 5.0 0.00 0.00 0.00 60 1012.1
20260509151033 66 143 1.0 4.0 0.00 0.00 0.00 61 1012.2
20260509150532 65 114 1.0 4.0 0.00 0.00 0.00 61 1012.3
20260509150330 65 37 1.0 4.0 0.00 0.00 0.00 61 1012.3
20260509145831 64 41 1.0 3.0 0.00 0.00 0.00 62 1012.4
20260509145033 64 143 1.0 3.0 0.00 0.00 0.00 63 1012.5
20260509144531 64 77 1.0 3.0 0.00 0.00 0.00 64 1012.5
20260509144030 63 107 1.0 4.0 0.00 0.00 0.00 64 1012.6
20260509143528 63 44 1.0 4.0 0.00 0.00 0.00 63 1012.7
20260509143029 63 54 1.0 3.0 0.00 0.00 0.00 65 1012.8
20260509142528 62 33 1.0 3.0 0.00 0.00 0.00 67 1012.8
20260509142029 62 54 1.0 3.0 0.00 0.00 0.00 65 1012.9
20260509141528 62 117 1.0 3.0 0.00 0.00 0.00 66 1012.8
20260509141026 62 143 1.0 3.0 0.00 0.00 0.00 65 1012.8
20260509140526 62 125 1.0 4.0 0.00 0.00 0.00 63 1012.8
20260509140323 62 54 1.0 4.0 0.00 0.00 0.00 63 1012.7
20260509135525 62 196 1.0 5.0 0.00 0.00 0.00 61 1012.6
20260509135024 62 129 1.0 5.0 0.00 0.00 0.00 62 1012.6
20260509134525 62 129 1.0 4.0 0.00 0.00 0.00 61 1012.8
20260509134025 62 171 1.0 3.0 0.00 0.00 0.00 65 1012.8
20260509133527 62 100 1.0 3.0 0.00 0.00 0.00 65 1012.8
20260509133025 62 73 1.0 4.0 0.00 0.00 0.00 64 1012.8
20260509132814 61 143 1.0 4.0 0.00 0.00 0.00 64 1012.8
20260509132027 61 89 1.0 4.0 0.00 0.00 0.00 64 1012.7
20260509131811 61 125 1.0 4.0 0.00 0.00 0.00 63 1012.8
20260509131015 61 143 1.0 4.0 0.00 0.00 0.00 62 1012.8
20260509130511 61 129 1.0 3.0 0.00 0.00 0.00 64 1012.8
20260509130009 61 234 1.0 4.0 0.00 0.00 0.00 64 1012.9
20260509125507 61 92 2.0 5.0 0.00 0.00 0.00 64 1012.9
20260509125009 61 155 2.0 5.0 0.00 0.00 0.00 62 1012.9
20260509124505 61 192 1.0 5.0 0.00 0.00 0.00 62 1012.7
20260509124302 61 171 1.0 5.0 0.00 0.00 0.00 63 1012.7
20260509123507 61 82 1.0 5.0 0.00 0.00 0.00 63 1012.6
20260509123003 60 188 1.0 4.0 0.00 0.00 0.00 62 1012.6
20260509122502 60 218 1.0 3.0 0.00 0.00 0.00 63 1012.6
20260509122259 60 54 1.0 5.0 0.00 0.00 0.00 62 1012.6
20260509121503 60 100 1.0 5.0 0.00 0.00 0.00 62 1012.7
20260509121303 60 110 1.0 4.0 0.00 0.00 0.00 63 1012.6
20260509120502 59 11 1.0 4.0 0.00 0.00 0.00 63 1012.6
20260509120004 59 54 1.0 5.0 0.00 0.00 0.00 63 1012.6
20260509115503 59 105 1.0 5.0 0.00 0.00 0.00 62 1012.5
20260509115003 59 264 1.0 4.0 0.00 0.00 0.00 62 1012.7
20260509114502 59 54 1.0 3.0 0.00 0.00 0.00 63 1012.7
20260509114002 59 11 1.0 4.0 0.00 0.00 0.00 63 1012.6
20260509113502 59 69 1.0 4.0 0.00 0.00 0.00 61 1012.6
20260509113002 59 143 1.0 4.0 0.00 0.00 0.00 60 1012.5
20260509112757 59 125 1.0 4.0 0.00 0.00 0.00 59 1012.5
20260509112001 59 143 1.0 4.0 0.00 0.00 0.00 58 1012.5
20260509111502 58 261 1.0 4.0 0.00 0.00 0.00 59 1012.4
20260509111002 58 100 1.0 5.0 0.00 0.00 0.00 59 1012.4
20260509110503 58 73 1.0 5.0 0.00 0.00 0.00 59 1012.4
20260509110001 58 100 0.0 3.0 0.00 0.00 0.00 61 1012.4
20260509105501 58 100 0.0 3.0 0.00 0.00 0.00 61 1012.4
20260509105301 58 326 0.0 3.0 0.00 0.00 0.00 62 1012.3
20260509104500 57 82 1.0 3.0 0.00 0.00 0.00 63 1012.4
20260509104004 57 100 1.0 3.0 0.00 0.00 0.00 65 1012.4
20260509103503 57 296 0.0 3.0 0.00 0.00 0.00 65 1012.3
20260509103004 57 54 1.0 1.0 0.00 0.00 0.00 63 1012.1
20260509102502 57 100 1.0 1.0 0.00 0.00 0.00 62 1011.9
20260509102252 57 82 0.0 1.0 0.00 0.00 0.00 61 1012.0
20260509101504 56 73 0.0 1.0 0.00 0.00 0.00 65 1012.2
20260509101000 56 89 0.0 1.0 0.00 0.00 0.00 64 1012.1
20260509100744 56 82 0.0 1.0 0.00 0.00 0.00 62 1012.0
20260509095956 57 54 0.0 3.0 0.00 0.00 0.00 61 1012.0
20260509095453 57 73 0.0 3.0 0.00 0.00 0.00 60 1011.9
20260509095249 57 11 0.0 1.0 0.00 0.00 0.00 60 1011.9
20260509094453 57 82 0.0 3.0 0.00 0.00 0.00 60 1011.9
20260509093954 57 279 1.0 3.0 0.00 0.00 0.00 59 1011.9
20260509093748 58 67 1.0 3.0 0.00 0.00 0.00 58 1011.9
20260509092953 58 73 1.0 3.0 0.00 0.00 0.00 57 1012.2
20260509092453 58 120 1.0 5.0 0.00 0.00 0.00 57 1012.2
20260509091954 58 89 1.0 5.0 0.00 0.00 0.00 55 1012.1
20260509091453 58 100 0.0 1.0 0.00 0.00 0.00 56 1012.2
20260509090952 58 89 1.0 5.0 0.00 0.00 0.00 55 1012.2
20260509090454 59 326 1.0 5.0 0.00 0.00 0.00 55 1012.2
20260509085951 59 114 1.0 5.0 0.00 0.00 0.00 55 1012.2
20260509085453 59 143 1.0 4.0 0.00 0.00 0.00 55 1012.3
20260509084951 59 158 1.0 5.0 0.00 0.00 0.00 54 1012.4
20260509084454 59 100 1.0 5.0 0.00 0.00 0.00 54 1012.4
20260509083946 58 94 1.0 5.0 0.00 0.00 0.00 54 1012.5
20260509083743 59 82 1.0 4.0 0.00 0.00 0.00 55 1012.5
20260509082944 59 117 1.0 4.0 0.00 0.00 0.00 54 1012.6
20260509082444 59 167 1.0 4.0 0.00 0.00 0.00 54 1012.5
20260509081944 59 117 1.0 5.0 0.00 0.00 0.00 54 1012.7
20260509081445 59 143 1.0 5.0 0.00 0.00 0.00 54 1012.7
20260509080944 59 171 1.0 4.0 0.00 0.00 0.00 53 1012.8
20260509080445 59 32 1.0 5.0 0.00 0.00 0.00 53 1012.9
20260509075942 59 241 1.0 5.0 0.00 0.00 0.00 53 1012.9
20260509075442 59 114 1.0 5.0 0.00 0.00 0.00 53 1012.9
20260509074943 59 234 2.0 8.0 0.00 0.00 0.00 53 1012.9
20260509074443 59 188 1.0 8.0 0.00 0.00 0.00 53 1012.9
20260509073939 59 125 1.0 8.0 0.00 0.00 0.00 54 1013.0
20260509073441 59 28 1.0 4.0 0.00 0.00 0.00 54 1013.0
20260509073238 59 279 1.0 5.0 0.00 0.00 0.00 54 1013.1
20260509072737 59 113 1.0 5.0 0.00 0.00 0.00 53 1012.9
20260509071940 58 143 1.0 5.0 0.00 0.00 0.00 54 1012.9
20260509071731 58 69 1.0 4.0 0.00 0.00 0.00 56 1012.9
20260509070938 58 113 1.0 4.0 0.00 0.00 0.00 57 1013.0
20260509070439 58 28 1.0 4.0 0.00 0.00 0.00 57 1012.9
20260509070240 58 54 1.0 4.0 0.00 0.00 0.00 56 1012.8
20260509065439 58 198 1.0 4.0 0.00 0.00 0.00 56 1013.0
20260509065230 58 143 1.0 4.0 0.00 0.00 0.00 58 1012.9
20260509064733 58 143 1.0 3.0 0.00 0.00 0.00 58 1013.0
20260509063940 58 54 1.0 3.0 0.00 0.00 0.00 58 1013.0
20260509063434 58 70 1.0 3.0 0.00 0.00 0.00 58 1013.0
20260509062934 57 205 1.0 3.0 0.00 0.00 0.00 60 1013.0
20260509062433 57 143 1.0 3.0 0.00 0.00 0.00 59 1013.2
20260509061936 57 54 0.0 3.0 0.00 0.00 0.00 60 1013.2
20260509061435 57 11 1.0 4.0 0.00 0.00 0.00 61 1013.2
20260509060935 56 143 1.0 4.0 0.00 0.00 0.00 62 1013.4
20260509060436 56 54 1.0 4.0 0.00 0.00 0.00 62 1013.2
20260509060236 56 92 0.0 3.0 0.00 0.00 0.00 64 1013.2
20260509055435 55 82 0.0 3.0 0.00 0.00 0.00 65 1013.2
20260509054929 55 82 1.0 3.0 0.00 0.00 0.00 67 1013.3
20260509054430 55 117 1.0 3.0 0.00 0.00 0.00 67 1013.2
20260509053930 55 54 1.0 3.0 0.00 0.00 0.00 68 1013.3
20260509053430 55 21 0.0 3.0 0.00 0.00 0.00 66 1013.3
20260509053227 56 54 0.0 3.0 0.00 0.00 0.00 65 1013.4
20260509052430 56 54 0.0 3.0 0.00 0.00 0.00 64 1013.4
20260509051930 56 100 0.0 3.0 0.00 0.00 0.00 64 1013.4
20260509051431 57 11 0.0 1.0 0.00 0.00 0.00 60 1013.4
20260509051223 57 54 0.0 1.0 0.00 0.00 0.00 59 1013.4
20260509050431 57 11 0.0 1.0 0.00 0.00 0.00 59 1013.3
20260509045929 57 11 0.0 1.0 0.00 0.00 0.00 58 1013.3
20260509045432 58 100 1.0 3.0 0.00 0.00 0.00 56 1013.3
20260509045219 58 54 1.0 3.0 0.00 0.00 0.00 56 1013.2
20260509044429 58 326 1.0 5.0 0.00 0.00 0.00 55 1013.3
20260509043929 58 41 1.0 5.0 0.00 0.00 0.00 54 1013.3
20260509043430 59 100 1.0 4.0 0.00 0.00 0.00 54 1013.3
20260509042930 59 100 1.0 7.0 0.00 0.00 0.00 54 1013.4
20260509042431 59 89 1.0 7.0 0.00 0.00 0.00 54 1013.4
20260509042021 59 100 1.0 4.0 0.00 0.00 0.00 54 1013.3
20260509042003 59 265 1.0 4.0 0.00 0.00 0.00 54 1013.2
20260509041227 59 100 1.0 4.0 0.00 0.00 0.00 55 1013.4
20260509040429 59 117 1.0 3.0 0.00 0.00 0.00 55 1013.3
20260509035929 59 129 1.0 5.0 0.00 0.00 0.00 54 1013.4
20260509035429 59 107 1.0 5.0 0.00 0.00 0.00 54 1013.3
20260509034931 59 143 1.0 5.0 0.00 0.00 0.00 56 1013.3
20260509034429 59 18 1.0 4.0 0.00 0.00 0.00 56 1013.4
20260509033929 59 135 1.0 4.0 0.00 0.00 0.00 56 1013.3
20260509033524 58 234 0.0 4.0 0.00 0.00 0.00 58 1013.4
20260509033506 58 100 1.0 4.0 0.00 0.00 0.00 59 1013.3
20260509032430 58 100 0.0 3.0 0.00 0.00 0.00 59 1013.4
20260509031929 58 54 1.0 3.0 0.00 0.00 0.00 60 1013.5
20260509031430 57 54 0.0 3.0 0.00 0.00 0.00 61 1013.5
20260509030929 57 100 0.0 1.0 0.00 0.00 0.00 63 1013.5
20260509030431 57 11 0.0 1.0 0.00 0.00 0.00 64 1013.6
20260509025928 57 54 0.0 1.0 0.00 0.00 0.00 64 1013.6
20260509025429 57 234 0.0 3.0 0.00 0.00 0.00 66 1013.6
20260509024930 57 54 0.0 3.0 0.00 0.00 0.00 65 1013.7
20260509024429 57 54 0.0 3.0 0.00 0.00 0.00 63 1013.7
20260509023929 58 54 0.0 1.0 0.00 0.00 0.00 64 1013.6
20260509023719 58 82 0.0 1.0 0.00 0.00 0.00 62 1013.6
20260509023027 59 54 0.0 1.0 0.00 0.00 0.00 59 1013.6
20260509023008 58 11 0.0 1.0 0.00 0.00 0.00 61 1013.7
20260509021929 59 70 0.0 1.0 0.00 0.00 0.00 57 1013.5
20260509021430 60 11 0.0 1.0 0.00 0.00 0.00 58 1013.6
20260509020929 60 82 0.0 3.0 0.00 0.00 0.00 56 1013.6
20260509020429 60 54 0.0 3.0 0.00 0.00 0.00 54 1013.5
20260509015930 60 54 0.0 3.0 0.00 0.00 0.00 53 1013.5
20260509015725 61 326 0.0 1.0 0.00 0.00 0.00 52 1013.4
20260509014930 61 117 0.0 1.0 0.00 0.00 0.00 52 1013.4
20260509014429 62 82 0.0 1.0 0.00 0.00 0.00 51 1013.4
20260509014224 62 54 0.0 3.0 0.00 0.00 0.00 50 1013.4
20260509013429 62 11 0.0 3.0 0.00 0.00 0.00 49 1013.4
20260509012928 63 82 0.0 3.0 0.00 0.00 0.00 49 1013.5
20260509012430 63 82 0.0 3.0 0.00 0.00 0.00 47 1013.5
20260509011931 63 143 0.0 3.0 0.00 0.00 0.00 46 1013.4
20260509011431 64 100 0.0 3.0 0.00 0.00 0.00 45 1013.4
20260509010929 64 54 1.0 3.0 0.00 0.00 0.00 45 1013.3
20260509010432 65 73 1.0 3.0 0.00 0.00 0.00 44 1013.3
20260509010220 65 100 1.0 3.0 0.00 0.00 0.00 43 1013.3
20260509005430 65 251 0.0 3.0 0.00 0.00 0.00 43 1013.2
20260509004930 66 125 1.0 3.0 0.00 0.00 0.00 42 1013.1
20260509004430 66 110 1.0 5.0 0.00 0.00 0.00 41 1013.1
20260509003930 67 143 1.0 5.0 0.00 0.00 0.00 40 1013.2
20260509003430 67 54 1.0 3.0 0.00 0.00 0.00 41 1013.0
20260509002929 67 174 1.0 4.0 0.00 0.00 0.00 40 1013.1
20260509002429 67 143 1.0 4.0 0.00 0.00 0.00 39 1013.1
20260509002229 67 132 1.0 4.0 0.00 0.00 0.00 40 1013.1
20260509001724 67 326 1.0 3.0 0.00 0.00 0.00 40 1013.0
20260509000929 67 100 1.0 3.0 0.00 0.00 0.00 40 1013.0
20260509000422 67 11 1.0 3.0 0.00 0.00 0.00 39 1012.8
20260508235922 67 11 1.0 4.0 0.00 0.00 0.00 39 1012.8
20260508235422 68 117 1.0 4.0 0.00 0.00 0.00 39 1012.7
20260508234921 68 125 1.0 4.0 0.00 0.00 0.00 37 1012.7
20260508234423 68 143 1.0 3.0 0.00 0.00 0.00 37 1012.7
20260508233925 68 54 1.0 3.0 0.00 0.00 0.00 36 1012.7
20260508233423 69 116 1.0 8.0 0.00 0.00 0.00 36 1012.7
20260508232920 69 162 2.0 8.0 0.00 0.00 0.00 35 1012.7
20260508232712 69 89 2.0 7.0 0.00 0.00 0.00 35 1012.7
20260508231921 69 143 2.0 7.0 0.00 0.00 0.00 34 1012.7
20260508231421 69 160 2.0 8.0 0.00 0.00 0.00 34 1012.6
20260508230920 69 107 1.0 8.0 0.00 0.00 0.00 37 1012.6
20260508230422 69 188 1.0 3.0 0.00 0.00 0.00 35 1012.5
20260508225921 69 73 0.0 3.0 0.00 0.00 0.00 34 1012.5
20260508225422 70 143 1.0 5.0 0.00 0.00 0.00 33 1012.4
20260508224923 70 143 1.0 5.0 0.00 0.00 0.00 34 1012.4
20260508224419 71 73 1.0 3.0 0.00 0.00 0.00 32 1012.4
20260508223918 71 162 1.0 7.0 0.00 0.00 0.00 30 1012.3
20260508223417 71 166 2.0 7.0 0.00 0.00 0.00 29 1012.2
20260508222917 71 162 2.0 7.0 0.00 0.00 0.00 28 1012.3
20260508222714 71 248 2.0 7.0 0.00 0.00 0.00 28 1012.4
20260508221918 71 129 1.0 7.0 0.00 0.00 0.00 29 1012.4
20260508221417 71 205 2.0 9.0 0.00 0.00 0.00 28 1012.4